Regional Weather Roundup
Issued by NWS Newport/Morehead, NC

Current Version | Previous Version | Graphics & Text | Print | Product List | Glossary Off
Versions: 1 2 3 4 5 6 7 8 9 10 11 12 13 14 15 16 17 18 19 20 21 22 23 24 25 26 27 28 29 30 31 32 33 34 35 36 37 38 39 40 41 42 43 44 45 46 47 48 49 50

000
ASUS42 KMHX 080824
RWRMHX
WEATHER ROUNDUP FOR EASTERN NORTH CAROLINA
NATIONAL WEATHER SERVICE NEWPORT/MOREHEAD CITY NC
300 AM EST THU DEC 08 2016

NOTE: "FAIR" INDICATES FEW OR NO CLOUDS BELOW 12,000 FEET
WITH NO SIGNIFICANT WEATHER AND/OR OBSTRUCTIONS TO VISIBILITY

NCZ015>017-031-032-045>047-102-103-080900-
NORTH COAST

CITY           SKY/WX    TMP DP  RH WIND       PRES   REMARKS
EDENTON        PTCLDY    44  42  93 CALM      30.07F
ELIZABETH CITY CLOUDY    40  40 100 CALM      30.07F
KITTY HAWK     SUNNY     45  45 100 CALM      30.05S
MANTEO         FOG       40  40 100 CALM      30.07S VSB 1/2

$$

NCZ045>047-081-094-103-104-080900-
CENTRAL COAST

CITY           SKY/WX    TMP DP  RH WIND       PRES   REMARKS
FRISCO         NOT AVBL

$$

NCZ095-097-098-100-101-080900-
SOUTHERN COAST

CITY           SKY/WX    TMP DP  RH WIND       PRES   REMARKS
BEAUFORT       CLOUDY    49  48  97 E3        30.07S
CEDAR ISLAND   NOT AVBL
JACKSONVILLE   CLOUDY    50  47  89 CALM      30.06F
PINEY ISLAND   CLOUDY   N/A N/A N/A E5        30.07S
WILMINGTON     CLOUDY    46  46 100 CALM      30.06F


$$

NCZ011>013-027>030-043-044-078>080-089-090>093-098-080900-
COASTAL PLAIN

CITY           SKY/WX    TMP DP  RH WIND       PRES   REMARKS
AHOSKIE        CLOUDY    45  43  95 CALM      30.06F
CLINTON        CLOUDY    51  49  95 CALM      30.05F
ELIZABETHTOWN  CLOUDY    49  49  99 S3        30.05S
GOLDSBORO      CLOUDY    50  49  97 SE7       30.02F
GREENVILLE     CLOUDY    46  45  93 CALM      30.07S
HAVELOCK       CLOUDY    48  46  93 CALM      30.08S
KENANSVILLE    NOT AVBL
KINSTON        CLOUDY    48  46  92 SE3       30.06F
NEW BERN       CLOUDY    48  46  93 SE3       30.08S
RICHLANDS      CLOUDY    49  46  90 SE5       30.06F
ROCKY MOUNT    CLOUDY    47  46  97 CALM      30.05F
WASHINGTON     CLOUDY    45  44  96 SE3       30.06F
WHITEVILLE     CLEAR     42  41  96 CALM      30.05F

$$

AMZ130-135-150-152-154-156-158-170-250-252-270-ANZ085-086-088-633-658-670-080900-
MARINE OBSERVATIONS

STATION/POSITION TIME  TEMP    WIND        PRES    WAVE   SWELL
                       AIR SEA DIR/SP/G            HT/PER HT/PER
                 (UTC) (F)     (DEG/KT/KT) (MB)    (FT/S) (FT/S)
CHESAPEAKE LIGHT NOT AVBL
64 E VA BEACH    0750   52 58  320/  8/ 12 1016.9    6/ 8   5/ 8
DUCK             0800   49 54  280/  3/  4 1017.3
2 E DUCK         NOT AVBL
OREGON INLET     0800   49 56  280/  4/  5 1018.0
13E OREGON INLT  NOT AVBL
HATTERAS CG      0800   51 60   CALM  /  2 1017.8
DIAMOND BUOY     0750   54 78  360/  8/ 10 1018.0    6/10   5/10
CAPE LOOKOUT     0800   54      30/  5/  5 1017.8
BEAUFORT LAB     0800   50 55   60/  4/  5 1017.1
30 SE NEW RVR IN 0808   58 71   40/  2/  6 1017.8
30 SE NEW RVR IN NOT AVBL
27 SE WRIGHTSVLE 0808   60 69  320/  6/ 10 1017.4
5 SE WRIGHTSVLE  0708   55 62   CALM  /  2 1017.7
225 S CAPE HAT   0750   71 73  290/ 10/ 12 1017.2    6/ 7   5/ 7
41 SE CHARLESTON 0750   62 74  290/  4/  6 1017.9    2/ 7   2/ 7

$$




USA.gov is the U.S. government's official web portal to all federal, state and local government web resources and services.